Location: Colebrook
(42.0017°N, 73.0973°W)
Time: 09:56:15
(UTC-04:00)

Tiros 1 despin weight - Visible Passes

Search period start: 25 October 2021 00:00
Search period end: 04 November 2021 00:00
Orbit: 592 x 641 km, 48.2° (Epoch: 24 October)

Date Brightness Start Highest point End Pass type
(mag) Time Alt. Az. Time Alt. Az. Time Alt. Az.
25 Oct ? 04:56:35 48° SE 04:56:37 48° SE 05:01:08 10° ENE visible
25 Oct ? 06:33:39 10° W 06:38:12 54° NNW 06:42:49 10° ENE visible
26 Oct ? 05:12:28 76° SSW 05:12:45 82° SSE 05:17:27 10° ENE visible
27 Oct ? 03:51:11 13° E 03:51:11 13° E 03:51:49 10° ENE visible
27 Oct ? 05:28:14 55° WNW 05:29:00 66° NNW 05:33:40 10° ENE visible
28 Oct ? 04:06:53 19° ENE 04:06:53 19° ENE 04:08:16 10° ENE visible
28 Oct ? 05:43:56 36° WNW 05:45:21 48° NNW 05:49:55 10° ENE visible
29 Oct ? 04:22:32 25° ENE 04:22:32 25° ENE 04:24:32 10° ENE visible
29 Oct ? 05:59:35 25° WNW 06:01:47 40° N 06:06:14 10° ENE visible
30 Oct ? 04:38:09 31° NE 04:38:09 31° NE 04:40:45 10° ENE visible
30 Oct ? 06:15:11 17° WNW 06:18:16 38° N 06:22:40 10° ENE visible
31 Oct ? 04:53:43 36° NNE 04:53:43 36° NNE 04:57:01 10° ENE visible
31 Oct ? 06:30:46 12° WNW 06:34:44 41° N 06:39:11 10° E visible
01 Nov ? 05:09:17 38° N 05:09:17 38° N 05:13:22 10° ENE visible
01 Nov ? 06:46:36 10° WNW 06:51:10 50° NNE 06:55:44 10° E visible
02 Nov ? 05:24:51 37° NNW 05:25:27 38° N 05:29:51 10° ENE visible
03 Nov ? 04:03:23 14° ENE 04:03:23 14° ENE 04:04:06 10° ENE visible
03 Nov ? 05:40:26 33° NNW 05:41:54 44° NNE 05:46:23 10° E visible
